Visibility
15.0 15.0 15.0 15.0 15.0 15.0 15.0 15.0 15.0 15.0 15.0 15.0 15.0 15.0 15.0 15.0 15.0 15.0 15.0 15.0 15.0 15.0 15.0 15.0 15.0 15.0 15.0 15.0 14.3 5.3 3.8 5.5 0.7 7.5 15.0 12.9 15.0 15.0 15.0 15.0 15.0 15.0 15.0
15.0 15.0 15.0 15.0 15.0 15.0 15.0 15.0 15.0 15.0 15.0 15.0 15.0 15.0 15.0 15.0 15.0 15.0 15.0 15.0 15.0 15.0 15.0 15.0 15.0 15.0 0.8 4.8 4.1 6.9 14.5 6.7 11.0 13.3 8.2 15.0 15.0 15.0 15.0 15.0 15.0 15.0 15.0
15.0 15.0 15.0 15.0 15.0 15.0 15.0 15.0 15.0 15.0 15.0 15.0 15.0 15.0 15.0 15.0 15.0 15.0 15.0 15.0 15.0 15.0 15.0 15.0 15.0 9.5 15.0 13.6 12.0 14.6 9.4 7.8 12.8 14.8 15.0 15.0 15.0 15.0 15.0 15.0 15.0 15.0 15.0
15.0 15.0 15.0 15.0 15.0 15.0 10.6 15.0 15.0 15.0 15.0 15.0 15.0 15.0 15.0 15.0 15.0 15.0 15.0 15.0 15.0 15.0 15.0 15.0 10.4 15.0 15.0 3.3 0.4 8.0 13.1 15.0 15.0 14.7 12.3 12.4 15.0 15.0 15.0 15.0 15.0 15.0 15.0
15.0 15.0 15.0 15.0 15.0 15.0 15.0 6.8 15.0 15.0 15.0 15.0 15.0 15.0 15.0 15.0 15.0 15.0 15.0 15.0 15.0 15.0 14.5 15.0 15.0 15.0 15.0 15.0 15.0 15.0 14.1 13.3 15.0 10.3 15.0 15.0 15.0 15.0 15.0 15.0 15.0 15.0 15.0
15.0 15.0 15.0 15.0 15.0 15.0 15.0 15.0 15.0 15.0 15.0 15.0 15.0 15.0 15.0 15.0 11.5 1.0 0.5 15.0 15.0 15.0 4.9 15.0 15.0 1.3 15.0 15.0 14.6 14.9 14.3 15.0 15.0 15.0 15.0 15.0 15.0 15.0 15.0 15.0 15.0 15.0 15.0
15.0 15.0 15.0 15.0 15.0 15.0 15.0 15.0 15.0 15.0 15.0 15.0 15.0 15.0 15.0 15.0 0.0 0.0 0.0 15.0 10.5 9.3 0.9 0.2 0.5 12.6 13.4 13.6 15.0 7.7 13.3 15.0 15.0 15.0 15.0 15.0 15.0 15.0 15.0 15.0 15.0 15.0 15.0
15.0 15.0 15.0 15.0 15.0 15.0 15.0 15.0 15.0 15.0 15.0 15.0 15.0 15.0 15.0 12.4 0.0 0.0 0.0 0.4 0.3 1.1 9.7 13.9 12.3 7.2 8.6 15.0 13.0 15.0 15.0 15.0 15.0 15.0 15.0 15.0 15.0 15.0 15.0 15.0 15.0 15.0 15.0
15.0 15.0 15.0 15.0 15.0 15.0 15.0 15.0 15.0 15.0 15.0 15.0 2.9 2.8 0.2 0.0 0.1 0.1 1.0 2.6 0.6 2.6 15.0 15.0 14.2 10.4 6.4 5.5 9.2 15.0 15.0 15.0 15.0 15.0 15.0 15.0 15.0 15.0 15.0 15.0 15.0 15.0 15.0
15.0 15.0 15.0 15.0 15.0 15.0 15.0 15.0 15.0 15.0 0.2 5.9 0.2 0.3 0.2 0.1 0.9 11.0 12.1 15.0 3.0 15.0 14.5 10.0 5.8 12.3 5.4 15.0 15.0 15.0 15.0 15.0 15.0 15.0 15.0 15.0 15.0 15.0 15.0 15.0 15.0 15.0 15.0
15.0 15.0 15.0 15.0 15.0 15.0 15.0 15.0 15.0 15.0 15.0 8.7 0.3 2.9 0.7 3.2 6.0 14.0 11.6 15.0 15.0 2.2 2.5 1.7 1.0 0.4 7.6 15.0 15.0 15.0 15.0 15.0 15.0 15.0 15.0 15.0 15.0 15.0 15.0 15.0 15.0 15.0 15.0
15.0 15.0 15.0 15.0 15.0 15.0 11.6 14.4 12.8 12.0 12.7 12.2 15.0 5.4 15.0 15.0 14.9 14.1 13.5 6.6 3.3 3.6 2.2 1.0 0.3 1.5 14.1 15.0 11.8 15.0 15.0 15.0 15.0 15.0 15.0 15.0 8.1 15.0 15.0 15.0 15.0 15.0 15.0
15.0 2.4 15.0 15.0 15.0 15.0 14.5 4.6 15.0 15.0 15.0 13.8 15.0 15.0 10.1 10.3 2.6 1.2 0.8 0.7 0.7 0.5 3.6 1.1 0.4 0.7 13.9 15.0 15.0 15.0 8.9 11.5 15.0 12.7 13.8 15.0 15.0 15.0 15.0 15.0 15.0 15.0 15.0
12.8 0.9 13.7 1.2 5.1 7.6 9.3 15.0 15.0 15.0 15.0 15.0 15.0 12.3 4.9 5.9 1.6 0.1 0.2 1.9 14.0 15.0 2.1 3.6 15.0 10.0 8.2 14.2 10.1 7.0 8.0 15.0 15.0 15.0 15.0 15.0 15.0 15.0 15.0 15.0 15.0 15.0 15.0
15.0 13.8 10.4 5.5 14.9 10.3 13.8 12.1 15.0 11.2 12.4 15.0 12.7 13.9 4.4 0.1 0.1 1.1 5.5 7.8 9.0 2.6 1.2 0.4 0.3 9.1 15.0 15.0 15.0 15.0 15.0 15.0 15.0 15.0 13.3 14.5 15.0 15.0 15.0 15.0 15.0 15.0 15.0
4.3 3.4 11.7 15.0 15.0 15.0 15.0 3.1 0.9 0.5 0.6 1.8 1.8 2.1 0.2 0.5 0.2 0.1 0.1 0.2 0.2 0.2 0.3 0.5 1.5 15.0 5.4 3.6 0.4 0.5 7.8 10.0 14.4 15.0 9.7 14.7 15.0 15.0 15.0 15.0 15.0 15.0 15.0
3.9 12.0 8.7 12.9 8.4 1.6 0.7 1.0 0.3 0.1 0.2 0.1 0.1 0.1 0.2 0.1 0.1 0.1 0.2 0.4 0.4 0.8 0.3 0.3 0.2 0.2 0.3 13.3 14.6 14.9 11.8 10.8 15.0 12.5 13.9 13.7 14.4 15.0 15.0 15.0 15.0 15.0 15.0
0.4 0.7 0.6 0.2 0.1 0.1 0.1 0.1 0.1 0.1 0.1 0.1 0.1 0.2 0.1 0.1 0.2 0.5 1.0 3.3 6.1 15.0 14.7 2.8 1.4 5.8 13.6 14.3 15.0 15.0 12.8 10.9 9.9 11.4 12.5 9.8 9.0 9.5 8.9 11.6 15.0 13.9 15.0
0.1 0.1 0.1 0.1 0.1 0.1 0.1 0.1 0.2 0.2 0.2 0.2 0.2 0.2 0.2 0.3 1.0 14.4 15.0 8.8 12.4 15.0 15.0 14.3 12.0 13.6 11.8 14.0 7.8 7.2 7.9 7.3 8.4 7.2 7.6 11.2 11.0 10.9 7.0 13.2 14.0 15.0 12.9
0.1 0.1 0.1 0.1 0.1 0.1 0.1 0.1 0.1 0.2 0.2 0.2 0.2 0.2 0.2 0.3 0.7 4.7 9.3 9.2 10.3 11.7 11.6 14.7 13.1 12.5 10.1 9.9 9.0 7.8 8.4 8.6 10.1 11.2 9.9 8.4 13.8 13.1 11.8 11.0 11.6 13.0 8.0
0.4 0.3 0.1 0.1 0.2 0.3 0.4 0.4 0.5 1.0 1.6 2.7 1.2 11.3 15.0 14.8 11.8 11.9 9.5 11.3 10.5 12.3 9.9 12.2 11.1 11.0 11.4 10.3 12.7 9.1 11.0 8.5 9.9 9.2 9.2 7.4 7.4 10.8 7.4 14.8 15.0 15.0 15.0
6.0 4.9 5.5 8.4 15.0 15.0 15.0 15.0 15.0 14.3 14.8 12.9 12.5 15.0 15.0 11.3 14.5 14.0 12.1 8.1 9.0 13.2 15.0 11.0 12.1 10.9 14.4 11.9 11.9 9.6 10.0 9.5 9.1 8.2 6.6 8.1 8.6 6.9 7.1 7.6 15.0 6.3 8.2
15.0 15.0 15.0 15.0 15.0 14.9 13.5 13.1 10.1 10.6 10.9 10.3 13.8 13.4 14.8 10.1 12.0 12.1 9.9 7.7 10.3 9.5 11.5 14.9 14.0 15.0 15.0 13.4 11.1 9.2 8.3 9.4 8.5 7.7 4.2 4.1 7.2 7.6 11.2 2.9 7.5 3.9 4.6
15.0 15.0 15.0 15.0 15.0 15.0 14.4 12.6 15.0 15.0 14.9 11.5 8.4 9.3 9.7 9.7 8.4 10.8 9.8 9.7 14.9 11.3 12.6 11.5 15.0 15.0 15.0 15.0 10.9 11.2 14.4 12.2 11.2 11.8 6.1 2.9 4.5 8.8 3.4 2.7 4.6 3.0 1.8
15.0 15.0 15.0 15.0 15.0 15.0 15.0 15.0 15.0 15.0 14.7 12.4 9.7 9.3 12.5 10.7 12.2 10.0 10.1 11.8 15.0 14.2 14.3 15.0 11.7 14.4 15.0 15.0 15.0 15.0 15.0 14.7 11.8 15.0 11.9 4.5 2.5 2.5 1.9 1.8 1.8 1.8 2.1
15.0 15.0 15.0 15.0 15.0 15.0 15.0 15.0 15.0 15.0 15.0 12.3 10.9 10.0 10.3 14.4 13.2 13.0 14.8 15.0 15.0 15.0 15.0 13.7 13.8 15.0 15.0 15.0 15.0 14.6 15.0 15.0 10.6 14.4 8.2 6.0 1.9 1.8 1.9 1.5 1.8 1.2 1.6